Metropolis, IL

10:15 AM CDT on October 16, 2019 (GMT -0500)
Metropolis

Weather History for KM30 - August, 2019

Change the Weather History Date:

Friday, August 23, 2019

  Actual Average (KPAH) Record (KPAH)
Temperature  
Mean Temperature 74 °F 77 °F  
Max Temperature 81 °F 89 °F 101 °F (2007)
Min Temperature 69 °F 65 °F 53 °F (1997)
Degree Days  
Heating Degree Days 0 0  
Month to date heating degree days 0  
Since 1 June heating degree days 4  
Since 1 July heating degree days 0  
Cooling Degree Days 10 12  
Month to date cooling degree days 296  
Year to date cooling degree days 1219  
Since 1 June cooling degree days 1047  
Growing Degree Days 24 (Base 50)    
Moisture  
Dew Point 69 °F    
Average Humidity 84    
Maximum Humidity 98    
Minimum Humidity 64    
Precipitation  
Precipitation 0.11 in 0.08 in 2.84 in (1992)
Month to date precipitation 2.08  
Year to date precipitation 31.80  
Snow  
Snow 0.00 in 0.00 in 0.00 in (2002)
Month to date snowfall 0.0  
Since 1 June snowfall 0.0  
Since 1 July snowfall 0.0  
Snow Depth -    
Sea Level Pressure  
Sea Level Pressure 30.04 in    
Wind  
Wind Speed 2 mph (NE)    
Max Wind Speed 9 mph    
Max Gust Speed 16 mph    
Visibility 5 miles    
Events Rain , Thunderstorm    
T = Trace of Precipitation, MM = Missing Value Source: NWS Daily Summary

Daily Weather History Graph

Daily Weather History Graph

Search for Another Location

Airport or City:

Astronomy

Aug. 23, 2019 Rise Set
Actual Time 6:18 AM CDT 7:36 PM CDT
Civil Twilight 5:50 AM CDT 8:03 PM CDT
Nautical Twilight 5:18 AM CDT 8:36 PM CDT
Astronomical Twilight 4:44 AM CDT 9:10 PM CDT
Moon No Moon Rise 1:44 PM CDT (8/23)
Length of Visible Light 14h 12m
Length of Day
13h 18m
Waning Gibbous, 49% of the Moon is Illuminated
Aug 23
Waning Gibbous
Aug 30
New
Sep 5
First Quarter
Sep 13
Full
Sep 21
Last Quarter

Hourly Weather History & Observations

Time (CDT) Temp. Heat Index Dew Point Humidity Pressure Visibility Wind Dir Wind Speed Gust Speed Precip Events Conditions
12:15 AM 70.3 °F - 69.8 °F 98% 30.01 in 5.0 mi Calm Calm - N/A   Overcast
12:35 AM 70.0 °F - 69.3 °F 98% 30.01 in 4.0 mi Calm Calm - N/A   Scattered Clouds
12:55 AM 69.8 °F - 68.9 °F 97% 30.01 in 4.0 mi Calm Calm - N/A   Mostly Cloudy
1:15 AM 69.8 °F - 69.1 °F 98% 30.01 in 4.0 mi Calm Calm - N/A   Overcast
1:35 AM 69.8 °F - 69.1 °F 98% 30.00 in 5.0 mi Calm Calm - N/A   Mostly Cloudy
1:55 AM 69.8 °F - 69.1 °F 98% 29.99 in 4.0 mi Calm Calm - N/A Thunderstorm Mostly Cloudy
2:15 AM 69.8 °F - 69.1 °F 98% 29.99 in 3.0 mi Calm Calm - N/A   Overcast
2:35 AM 69.8 °F - 69.1 °F 98% 29.99 in 3.0 mi Calm Calm - N/A Thunderstorm Overcast
2:55 AM 70.0 °F - 69.3 °F 98% 30.00 in 3.0 mi Calm Calm - N/A Thunderstorm Overcast
3:15 AM 70.3 °F - 69.8 °F 98% 30.01 in 4.0 mi Calm Calm - N/A   Overcast
3:35 AM 70.5 °F - 69.8 °F 98% 30.00 in 4.0 mi Calm Calm - N/A   Overcast
3:55 AM 70.3 °F - 69.8 °F 98% 30.01 in 4.0 mi Calm Calm - N/A   Overcast
4:15 AM 70.3 °F - 69.8 °F 98% 30.01 in 3.0 mi Calm Calm - N/A   Overcast
4:35 AM 70.3 °F - 69.8 °F 98% 30.01 in 7.0 mi Calm Calm - 0.01 in Rain Light Rain
4:55 AM 70.3 °F - 69.8 °F 98% 30.02 in 2.5 mi Calm Calm - 0.01 in Rain Rain
5:15 AM 70.7 °F - 69.8 °F 97% 30.03 in 3.0 mi Calm Calm - 0.02 in Rain Heavy Rain
5:35 AM 70.7 °F - 69.8 °F 97% 30.03 in 4.0 mi North 3.5 mph - 0.08 in Rain Heavy Rain
5:55 AM 70.3 °F - 69.8 °F 98% 30.04 in 7.0 mi Calm Calm - 0.09 in Rain Light Rain
6:15 AM 70.3 °F - 69.8 °F 98% 30.04 in 5.0 mi Calm Calm - N/A Rain Rain
6:35 AM 70.3 °F - 69.8 °F 98% 30.03 in 4.0 mi Calm Calm - 0.01 in Rain Rain
6:55 AM 70.3 °F - 69.8 °F 98% 30.03 in 2.0 mi Calm Calm - 0.01 in Rain Rain
7:15 AM 70.5 °F - 69.8 °F 98% 30.04 in 2.5 mi Calm Calm - N/A Rain Rain
7:35 AM 70.7 °F - 70.0 °F 98% 30.05 in 4.0 mi Calm Calm - N/A Rain Rain
7:55 AM 70.7 °F - 70.0 °F 98% 30.05 in 3.0 mi Calm Calm - N/A   Overcast
8:15 AM 70.9 °F - 70.2 °F 98% 30.05 in 4.0 mi Calm Calm - N/A   Mostly Cloudy
8:35 AM 71.2 °F - 70.2 °F 96% 30.04 in 4.0 mi NE 3.5 mph - N/A   Scattered Clouds
8:55 AM 71.8 °F - 70.7 °F 96% 30.03 in 3.0 mi NE 5.8 mph - N/A   Clear
9:35 AM 74.3 °F - 71.1 °F 90% 30.04 in 4.0 mi NE 5.8 mph - N/A   Mostly Cloudy
9:55 AM 75.6 °F - 70.5 °F 84% 30.05 in 4.0 mi East 4.6 mph - N/A   Haze
10:15 AM 75.2 °F - 70.3 °F 85% 30.06 in 3.0 mi Calm Calm - N/A   Haze
10:35 AM 76.1 °F - 70.3 °F 82% 30.06 in 4.0 mi ENE 3.5 mph - N/A   Haze
10:55 AM 77.0 °F - 70.9 °F 81% 30.06 in 4.0 mi Calm Calm - N/A   Haze
11:15 AM 78.6 °F - 71.8 °F 79% 30.07 in 3.0 mi NNE 6.9 mph - N/A   Haze
11:35 AM 78.3 °F - 71.8 °F 80% 30.07 in 4.0 mi NNE 4.6 mph - N/A   Haze
11:55 AM 78.3 °F - 70.3 °F 77% 30.07 in 3.0 mi North 4.6 mph - N/A   Haze
12:15 PM 80.6 °F 84.6 °F 71.8 °F 74% 30.06 in 3.0 mi East 3.5 mph - N/A   Haze
12:35 PM 80.4 °F 84.1 °F 70.9 °F 73% 30.06 in 10.0 mi NNW 3.5 mph - N/A   Mostly Cloudy
12:55 PM 79.7 °F - 70.5 °F 73% 30.05 in 4.0 mi North 3.5 mph - N/A   Haze
1:15 PM 78.8 °F - 70.9 °F 77% 30.05 in 3.0 mi NE 5.8 mph - N/A   Haze
1:35 PM 78.8 °F - 70.5 °F 76% 30.05 in 4.0 mi NE 5.8 mph - N/A   Haze
1:55 PM 78.3 °F - 68.4 °F 71% 30.05 in 4.0 mi NNE 8.1 mph - N/A   Haze
2:15 PM 78.8 °F - 68.4 °F 70% 30.05 in 7.0 mi NNE 4.6 mph - N/A Rain Rain
2:35 PM 78.3 °F - 68.0 °F 71% 30.05 in 7.0 mi NE 4.6 mph - N/A Rain Heavy Rain
2:55 PM 77.5 °F - 68.5 °F 74% 30.04 in 7.0 mi NE 5.8 mph - N/A Rain Rain
3:15 PM 79.2 °F - 70.9 °F 76% 30.04 in 7.0 mi NNE 9.2 mph - N/A Rain Heavy Rain
3:35 PM 78.8 °F - 70.5 °F 76% 30.04 in 5.0 mi NE 6.9 mph - N/A Rain Rain
3:55 PM 80.2 °F 83.9 °F 71.2 °F 74% 30.03 in 7.0 mi NE 6.9 mph - N/A Rain Rain
4:15 PM 79.5 °F - 69.1 °F 70% 30.03 in 7.0 mi NE 9.2 mph - N/A Rain Heavy Rain
4:35 PM 80.2 °F 82.6 °F 67.1 °F 64% 30.03 in 7.0 mi ENE 6.9 mph - N/A Rain Rain
4:55 PM 79.3 °F - 67.6 °F 67% 30.03 in 7.0 mi ENE 4.6 mph - N/A Rain Heavy Rain
5:15 PM 80.1 °F 82.8 °F 68.5 °F 68% 30.03 in 5.0 mi NE 6.9 mph - N/A Rain Heavy Rain
5:30 PM 80.6 °F 83.8 °F 69.4 °F 69% 30.03 in 7.0 mi NE 5.8 mph - N/A Rain Rain
5:55 PM 78.4 °F - 69.3 °F 73% 30.04 in 4.0 mi NNE 6.9 mph - N/A Rain Heavy Rain
6:15 PM 77.4 °F - 68.0 °F 73% 30.05 in 5.0 mi NE 6.9 mph 16.1 mph N/A Rain Rain
6:35 PM 76.6 °F - 68.0 °F 75% 30.05 in 7.0 mi NE 5.8 mph - N/A Rain Rain
6:55 PM 76.1 °F - 68.0 °F 76% 30.05 in 7.0 mi NE 5.8 mph - N/A Rain Light Rain
7:15 PM 75.4 °F - 67.5 °F 76% 30.05 in 4.0 mi NE 4.6 mph - N/A   Haze
7:35 PM 74.7 °F - 67.5 °F 78% 30.05 in 5.0 mi NE 5.8 mph - N/A   Haze
7:55 PM 73.8 °F - 67.3 °F 80% 30.04 in 10.0 mi NNE 6.9 mph - N/A   Clear
8:15 PM 72.7 °F - 66.0 °F 80% 30.05 in 7.0 mi NE 6.9 mph - N/A   Clear
8:35 PM 72.5 °F - 64.8 °F 77% 30.06 in 10.0 mi NE 6.9 mph - N/A   Clear
8:55 PM 71.8 °F - 63.0 °F 74% 30.07 in 10.0 mi NE 6.9 mph - N/A   Clear
9:15 PM 71.4 °F - 61.5 °F 71% 30.08 in 10.0 mi NE 6.9 mph - N/A   Clear
9:35 PM 71.1 °F - 62.1 °F 73% 30.10 in 7.0 mi NE 5.8 mph - N/A   Clear
9:55 PM 70.7 °F - 62.6 °F 75% 30.10 in 5.0 mi NE 4.6 mph - N/A   Haze
10:15 PM 70.3 °F - 62.6 °F 76% 30.09 in 10.0 mi NE 5.8 mph - N/A   Clear
10:35 PM 69.8 °F - 62.8 °F 78% 30.10 in 10.0 mi NE 4.6 mph - N/A   Clear
10:55 PM 69.4 °F - 63.0 °F 80% 30.11 in 10.0 mi NE 5.8 mph - N/A   Clear
11:15 PM 69.8 °F - 63.0 °F 79% 30.10 in 10.0 mi NE 4.6 mph - N/A   Mostly Cloudy
11:35 PM 69.8 °F - 63.0 °F 79% 30.11 in 10.0 mi ENE 4.6 mph - N/A   Overcast
11:55 PM 69.8 °F - 63.1 °F 79% 30.11 in 7.0 mi ENE 3.5 mph - N/A   Overcast